VE1UHF-4 Weather Reports


time (UTC)temp
C
wind
direction
speed
KPH
gust
KPH
rain 1hr
cm
rain 24hr
cm
rain mn
cm
humidity
%
barometer
mb
20260507173545 15 270 0.0 0.0 0.00 0.00 0.00 86 996.0
20260507172045 15 270 0.0 0.0 0.00 0.00 0.00 86 995.7
20260507170544 15 270 0.0 0.0 0.00 0.00 0.00 86 995.7
20260507165044 15 270 0.0 0.0 0.00 0.00 0.00 86 996.0
20260507163543 15 270 0.0 0.0 0.00 0.00 0.00 86 994.8
20260507162043 15 270 0.0 0.0 0.00 0.00 0.00 85 996.6
20260507160542 15 270 0.0 0.0 0.00 0.00 0.00 85 996.3
20260507155042 15 270 0.0 0.0 0.00 0.00 0.00 85 996.1
20260507153541 16 270 0.0 0.0 0.00 0.00 0.00 84 996.7
20260507152040 16 270 0.0 0.0 0.00 0.00 0.00 84 997.2
20260507150540 16 270 0.0 0.0 0.00 0.00 0.00 84 997.4
20260507145039 16 270 0.0 0.0 0.00 0.00 0.00 85 997.4
20260507143539 16 270 0.0 0.0 0.00 0.00 0.00 85 997.3
20260507142038 16 270 0.0 0.0 0.00 0.00 0.00 85 997.3
20260507140538 16 270 0.0 0.0 0.00 0.00 0.00 85 997.2
20260507135038 16 270 0.0 0.0 0.00 0.00 0.00 85 997.2
20260507133537 16 270 0.0 0.0 0.00 0.00 0.00 85 997.3
20260507132037 16 270 0.0 0.0 0.00 0.00 0.00 85 997.3
20260507130535 16 270 0.0 0.0 0.00 0.00 0.00 85 997.4
20260507125036 16 270 0.0 0.0 0.00 0.00 0.00 86 997.2
20260507123534 16 270 0.0 0.0 0.00 0.00 0.00 85 997.3
20260507122034 16 270 0.0 0.0 0.00 0.00 0.00 86 997.2
20260507120535 16 270 0.0 0.0 0.00 0.00 0.00 85 997.6
20260507115033 16 270 0.0 0.0 0.00 0.00 0.00 86 997.0
20260507113532 16 270 0.0 0.0 0.00 0.00 0.00 85 997.3
20260507112032 16 270 0.0 0.0 0.00 0.00 0.00 85 997.5
20260507110531 16 270 0.0 0.0 0.00 0.00 0.00 85 997.4
20260507105031 16 270 0.0 0.0 0.00 0.00 0.00 85 997.6
20260507103530 15 270 0.0 0.0 0.00 0.00 0.00 84 997.6
20260507102031 15 270 0.0 0.0 0.00 0.00 0.00 83 997.7
20260507100529 15 270 0.0 0.0 0.00 0.00 0.00 83 997.5
20260507095028 15 270 0.0 0.0 0.00 0.00 0.00 83 997.6
20260507093528 15 270 0.0 0.0 0.00 0.00 0.00 82 998.0
20260507092027 15 270 0.0 0.0 0.00 0.00 0.00 82 998.3
20260507090527 15 270 0.0 0.0 0.00 0.00 0.00 81 998.5
20260507085026 16 270 0.0 0.0 0.00 0.00 0.00 81 998.5
20260507083526 16 270 0.0 0.0 0.00 0.00 0.00 81 998.8
20260507082025 16 270 0.0 0.0 0.00 0.00 0.00 80 999.1
20260507080525 16 270 0.0 0.0 0.00 0.00 0.00 80 999.6
20260507075024 16 270 0.0 0.0 0.00 0.00 0.00 80 999.6
20260507073524 16 270 0.0 0.0 0.00 0.00 0.00 80 999.9
20260507072023 16 270 0.0 0.0 0.00 0.00 0.00 80 1000.6
20260507070522 16 270 0.0 0.0 0.00 0.00 0.00 79 1000.6
20260507065022 16 270 0.0 0.0 0.00 0.00 0.00 79 1001.2
20260507063521 17 270 0.0 0.0 0.00 0.00 0.00 78 1001.1
20260507062021 17 270 0.0 0.0 0.00 0.00 0.00 78 1002.0
20260507055020 17 270 0.0 0.0 0.00 0.00 0.00 78 1002.4
20260507053519 17 270 0.0 0.0 0.00 0.00 0.00 78 1002.8
20260507052019 17 270 0.0 0.0 0.00 0.00 0.00 78 1003.1
20260507050518 17 270 0.0 0.0 0.00 0.00 0.00 78 1002.6
20260507045018 17 270 0.0 0.0 0.00 0.00 0.00 78 1003.5
20260507043517 17 270 0.0 0.0 0.00 0.00 0.00 77 1003.7
20260507042017 17 270 0.0 0.0 0.00 0.00 0.00 77 1004.1
20260507040518 18 270 0.0 0.0 0.00 0.00 0.00 77 1004.4
20260507035015 18 270 0.0 0.0 0.00 0.00 0.00 77 1004.4
20260507033515 18 270 0.0 0.0 0.00 0.00 0.00 77 1004.8
20260507032014 18 270 0.0 0.0 0.00 0.00 0.00 77 1005.0
20260507030514 18 270 0.0 0.0 0.00 0.00 0.00 77 1005.4
20260507025013 18 270 0.0 0.0 0.00 0.00 0.00 77 1005.6
20260507023513 18 270 0.0 0.0 0.00 0.00 0.00 77 1006.2
20260507022012 19 270 0.0 0.0 0.00 0.00 0.00 77 1006.2
20260507020514 19 270 0.0 0.0 0.00 0.00 0.00 76 1006.4
20260507015011 19 270 0.0 0.0 0.00 0.00 0.00 75 1006.6
20260507013511 19 270 0.0 0.0 0.00 0.00 0.00 75 1006.9
20260507012010 20 270 0.0 0.0 0.00 0.00 0.00 74 1007.0
20260507010510 20 270 0.0 0.0 0.00 0.00 0.00 73 1007.1
20260507005009 20 270 0.0 0.0 0.00 0.00 0.00 73 1007.4
20260507002009 21 270 0.0 0.0 0.00 0.00 0.00 71 1007.2
20260507000507 22 270 0.0 0.0 0.00 0.00 0.00 71 1007.3
20260506235007 22 270 0.0 0.0 0.00 0.00 0.00 71 1007.1
20260506232002 21 270 0.0 0.0 0.00 0.00 0.00 75 1006.5
20260506230501 21 270 0.0 0.0 0.00 0.00 0.00 74 1006.6
20260506225001 21 270 0.0 0.0 0.00 0.00 0.00 74 1006.6
20260506223500 21 270 0.0 0.0 0.00 0.00 0.00 75 1006.8
20260506222000 22 270 0.0 0.0 0.00 0.00 0.00 76 1006.6
20260506220459 22 270 0.0 0.0 0.00 0.00 0.00 75 1006.8
20260506214959 22 270 0.0 0.0 0.00 0.00 0.00 77 1006.7
20260506213458 22 270 0.0 0.0 0.00 0.00 0.00 78 1006.5
20260506211957 22 270 0.0 0.0 0.00 0.00 0.00 78 1006.1
20260506210457 22 270 0.0 0.0 0.00 0.00 0.00 78 1005.9
20260506204956 22 270 0.0 0.0 0.00 0.00 0.00 79 1006.0
20260506203456 22 270 0.0 0.0 0.00 0.00 0.00 79 1005.8
20260506201955 22 270 0.0 0.0 0.00 0.00 0.00 80 1005.8
20260506200455 22 270 0.0 0.0 0.00 0.00 0.00 80 1005.9
20260506194954 22 270 0.0 0.0 0.00 0.00 0.00 80 1006.1
20260506193454 23 270 0.0 0.0 0.00 0.00 0.00 80 1006.2
20260506191953 23 270 0.0 0.0 0.00 0.00 0.00 80 1006.3
20260506190453 23 270 0.0 0.0 0.00 0.00 0.00 79 1006.5
20260506184952 23 270 0.0 0.0 0.00 0.00 0.00 80 1006.8
20260506183452 23 270 0.0 0.0 0.00 0.00 0.00 81 1006.7
20260506181951 23 270 0.0 0.0 0.00 0.00 0.00 82 1006.9
20260506180450 23 270 0.0 0.0 0.00 0.00 0.00 84 1007.1
20260506174950 23 270 0.0 0.0 0.00 0.00 0.00 85 1007.0